This demonstration page uses our WeatherBlox Daily Observations layout. Learn more.

Left ArrowRight Arrow

Hourly Observations for July 24, 2016

Temp ( °F °C ) Dew Point ( °F °C ) Humidity (%) Winds ( mph kmh ) Pressure ( in mb ) Visibility ( mi km ) Precip ( " mm )
12:53 am 00:53 Clear 74 23.3 71 21.7 91 91 N N/A 29.98 1015 10 16 N/A
1:53 am 01:53 Clear 73 22.8 71 21.7 94 94 N N/A 29.97 1015 10 16 N/A
2:53 am 02:53 Clear 73 22.8 70 21.1 90 90 N N/A 29.99 1016 10 16 N/A
3:53 am 03:53 Clear 73 22.8 70 21.1 90 90 N N/A 29.97 1015 9 14 N/A
4:53 am 04:53 Clear 72 22.2 70 21.1 94 94 N N/A 29.97 1015 8 13 N/A
5:53 am 05:53 Mostly Clear 73 22.8 71 21.7 94 94 NW 3 6 29.99 1016 9 14 N/A
6:53 am 06:53 Sunny with Mist and Fog 73 22.8 71 21.7 94 94 N N/A 29.98 1015 5 8 N/A
7:53 am 07:53 Sunny 78 25.6 74 23.3 87 87 N N/A 29.98 1015 10 16 N/A
8:53 am 08:53 Sunny 83 28.3 73 22.8 72 72 N N/A 30.00 1016 10 16 N/A
9:53 am 09:53 Sunny 86 30 73 22.8 65 65 N N/A 30.01 1016 10 16 N/A
10:53 am 10:53 Sunny 90 32.2 75 23.9 62 62 SW 5 7 30.01 1016 10 16 N/A
11:53 am 11:53 Sunny 91 32.8 74 23.3 57 57 WSW 7 11 30.01 1016 10 16 N/A
12:53 pm 12:53 Sunny 93 33.9 72 22.2 50 50 WSW 8 13 29.99 1016 10 16 N/A
1:53 pm 13:53 Sunny 94 34.4 72 22.2 49 49 W 9 15 29.98 1015 10 16 N/A
2:53 pm 14:53 Partly Cloudy 93 33.9 73 22.8 52 52 SW 8 13 29.98 1015 10 16 N/A
3:53 pm 15:53 Partly Cloudy 94 34.4 74 23.3 52 52 WSW 9 15 29.97 1015 10 16 N/A
4:53 pm 16:53 Mostly Sunny 94 34.4 73 22.8 51 51 WSW 9 15 29.96 1015 10 16 N/A
5:53 pm 17:53 Sunny 94 34.4 70 21.1 46 46 W 9 15 29.95 1014 10 16 N/A
6:53 pm 18:53 Sunny 93 33.9 71 21.7 49 49 SW 7 11 29.95 1014 10 16 N/A
7:53 pm 19:53 Sunny 91 32.8 71 21.7 52 52 WSW 7 11 29.94 1014 10 16 N/A
8:53 pm 20:53 Sunny 88 31.1 73 22.8 61 61 WSW 5 7 29.94 1014 10 16 N/A
9:53 pm 21:53 Clear 81 27.2 74 23.3 79 79 N N/A 29.95 1014 10 16 N/A
10:53 pm 22:53 Clear 83 28.3 74 23.3 74 74 SSW 3 6 29.95 1014 10 16 N/A
11:53 pm 23:53 Clear 81 27.2 74 23.3 79 79 N N/A 29.95 1014 10 16 N/A

Powered by AerisWeather